This demonstration page uses our WeatherBlox Daily Observations layout. Learn more.

Left ArrowRight Arrow

39.92423, -83.80882

Hourly Observations for May 20, 2020

Temp ( °F °C ) Dew Point ( °F °C ) Humidity (%) Winds ( mph kmh ) Pressure ( in mb ) Visibility ( mi km ) Precip ( " mm )
12:56 am 00:56 Cloudy 52 11.1 52 11.1 100 100 E 18 30 30.06 1018 10 16.0934 0 0
1:56 am 01:56 Cloudy with Light Rain 51 10.6 51 10.6 100 100 E 16 26 30.06 1018 10 16.0934 0 0
2:13 am 02:13 Cloudy with Light Rain 50 10 50 10 100 100 E 17 28 30.06 1018 7 11.26538 0 0
2:36 am 02:36 Cloudy 52 11 52 11 100 100 E 21 33 30.06 1018 10 16.0934 0 0
2:56 am 02:56 Cloudy 51 10.6 50 10 96 96 E 18 30 30.06 1018 10 16.0934 0 0
3:49 am 03:49 Cloudy 50 10 48 9 94 94 E 18 30 30.06 1018 10 16.0934 0 0
3:56 am 03:56 Cloudy 50 10 49 9.4 96 96 E 23 37 30.06 1018 10 16.0934 0 0
4:13 am 04:13 Cloudy 48 9 48 9 100 100 E 21 33 30.08 1018 10 16.0934 0 0
4:25 am 04:25 Cloudy with Light Rain 48 9 48 9 100 100 E 16 26 30.08 1018 9 14.48406 0 0
4:56 am 04:56 Cloudy 48 8.9 48 8.9 100 100 E 21 33 30.07 1018 10 16.0934 0 0
5:10 am 05:10 Cloudy 48 9 48 9 100 100 E 20 31 30.09 1019 10 16.0934 0 0
5:36 am 05:36 Cloudy with Light Rain 48 9 48 9 100 100 E 15 24 30.1 1019 7 11.26538 0 0
5:45 am 05:45 Cloudy with Light Rain 48 9 48 9 100 100 E 17 28 30.1 1019 10 16.0934 0 0
5:56 am 05:56 Cloudy with Light Rain 48 8.9 48 8.9 100 100 E 17 28 30.09 1019 10 16.0934 0 0
6:56 am 06:56 Cloudy 47 8.3 47 8.3 100 100 E 20 31 30.1 1019 10 16.0934 0 0
7:56 am 07:56 Cloudy with Light Rain 47 8.3 47 8.3 100 100 E 20 31 30.11 1020 9 14.48406 0 0
8:56 am 08:56 Cloudy 48 8.9 48 8.9 100 100 E 17 28 30.12 1020 10 16.0934 0 0
9:56 am 09:56 Cloudy 50 10 48 8.9 93 93 E 21 33 30.14 1021 10 16.0934 0 0
10:56 am 10:56 Cloudy with Light Rain 51 10.6 49 9.4 92 92 E 16 26 30.15 1021 10 16.0934 0 0
11:56 am 11:56 Cloudy 52 11.1 49 9.4 89 89 E 21 33 30.16 1021 10 16.0934 0 0
12:32 pm 12:32 Cloudy 54 12 48 9 82 82 E 21 33 30.15 1021 10 16.0934 0 0
12:56 pm 12:56 Cloudy 54 12.2 50 10 87 87 E 16 26 30.16 1021 10 16.0934 0 0
1:56 pm 13:56 Cloudy 53 11.7 49 9.4 86 86 E 18 30 30.16 1021 10 16.0934 0 0
2:52 pm 14:52 Cloudy 54 12 50 10 88 88 E 18 30 30.14 1021 10 16.0934 0 0
2:56 pm 14:56 Cloudy 54 12.2 50 10 87 87 E 22 35 30.15 1021 10 16.0934 0 0
3:03 pm 15:03 Cloudy 54 12 50 10 88 88 E 20 31 30.14 1021 10 16.0934 0 0
3:56 pm 15:56 Cloudy 55 12.8 50 10 83 83 E 18 30 30.15 1021 10 16.0934 0 0
4:51 pm 16:51 Mostly Cloudy 57 14 50 10 77 77 ESE 23 37 30.13 1020 10 16.0934 0 0
4:56 pm 16:56 Mostly Cloudy 57 13.9 49 9.4 74 74 E 24 39 30.14 1021 10 16.0934 0 0
5:28 pm 17:28 Cloudy 55 13 48 9 77 77 E 22 35 30.14 1021 10 16.0934 0 0
5:56 pm 17:56 Cloudy 54 12.2 49 9.4 83 83 E 22 35 30.15 1021 10 16.0934 0 0
6:25 pm 18:25 Cloudy 54 12 48 9 82 82 E 16 26 30.14 1021 10 16.0934 0 0
6:56 pm 18:56 Mostly Cloudy 54 12.2 50 10 87 87 E 17 28 30.13 1020 10 16.0934 0 0
7:38 pm 19:38 Mostly Cloudy 54 12 52 11 94 94 ESE 18 30 30.14 1021 10 16.0934 0 0
7:56 pm 19:56 Mostly Cloudy 52 11.1 51 10.6 97 97 E 16 26 30.15 1021 10 16.0934 0 0
8:11 pm 20:11 Mostly Cloudy 52 11 52 11 100 100 E 15 24 30.15 1021 10 16.0934 0 0
8:56 pm 20:56 Clear 51 10.6 51 10.6 100 100 E 12 19 30.15 1021 10 16.0934 0 0
9:56 pm 21:56 Cloudy 52 11.1 50 10 93 93 E 14 22 30.16 1021 10 16.0934 0 0
10:56 pm 22:56 Cloudy 51 10.6 50 10 96 96 E 13 20 30.16 1021 10 16.0934 0 0
11:56 pm 23:56 Cloudy 52 11.1 50 10 93 93 E 10 17 30.16 1021 10 16.0934 0 0

Powered by AerisWeather